Find Starlink 31373

NORAD ID: 58965 Int'l Des: 2024-031 Owner: SPXS Country: US Constellation: starlink operational
LEOCIRCULAR

Live-Position

3D-Globus wird geladen...

Über Starlink 31373

Beschreibung wird geladen...

Nächste Überflüge

Passes for default location (London). Set your location on the main map for personalized predictions.

Höhenverlauf

Loading altitude history...

Zweizeiliger Elementsatz

1 58965U 24031A 26126.14203502 .00000951 00000-0 44239-4 0 9998
2 58965 53.1606 29.5286 0001057 94.6170 265.4951 15.30193732125338
Epoch: 6. Mai 2026 • Age: 7 hours

Aktueller Status

Höhe 478.1 km
Geschwindigkeit 7.63 km/s
Subsatellitenpunkt -10.35°S, 166.1°W
Startdatum 15. Feb. 2024
Alter 2.2 years
Typ internet

Technische Details

Klassifizierung Payload
Masse 730.00 kg
Trockenmasse 700.00 kg
Gesamtmasse 730.00 kg
Länge 0.30 m
Durchmesser 4.10 m
Spannweite 29.00 m
Form Box + pan
Hersteller SPXS
Bus-Typ Starlink V2M
Phasenstatus In Orbit
Besitzer/Staat SPXS/US

Most Searched